• In Czech Republic
  • List of Countries
  • For 7 days
  • Water Temperature
  • Satellite Maps
  • Weather Map
  • Weather Widgets
  • user-avatar
    Login

    Hourly Weather Sassuolo

    Today, 20 August, Monday

    Time Temperature Precipitation Wind Pressure Humidity
    00:00 +24°C° 0 mm 1 mps 752 mmHg 60%
    01:00 +24°C° 0 mm 1 mps 752 mmHg 61%
    02:00 +24°C° 0.1 mm 1 mps 752 mmHg 63%
    03:00 +23°C° 0.1 mm 1 mps 752 mmHg 65%
    04:00 +23°C° 0.1 mm 1 mps 752 mmHg 67%
    05:00 +23°C° 0 mm 1 mps 752 mmHg 66%
    06:00 +24°C° 0 mm 2 mps 752 mmHg 66%
    07:00 +25°C° 0 mm 2 mps 752 mmHg 65%
    08:00 +27°C° 0 mm 2 mps 752 mmHg 59%
    09:00 +28°C° 0 mm 2 mps 752 mmHg 53%
    10:00 +30°C° 0 mm 2 mps 752 mmHg 46%
    11:00 +32°C° 0 mm 2 mps 752 mmHg 43%
    12:00 +34°C° 0 mm 2 mps 752 mmHg 39%
    13:00 +35°C° 0 mm 2 mps 751 mmHg 36%
    14:00 +35°C° 0 mm 2 mps 751 mmHg 35%
    15:00 +35°C° 0 mm 2 mps 751 mmHg 34%
    16:00 +35°C° 0 mm 2 mps 750 mmHg 33%
    17:00 +32°C° 0 mm 2 mps 750 mmHg 38%
    18:00 +30°C° 0 mm 2 mps 750 mmHg 43%
    19:00 +28°C° 0 mm 1 mps 750 mmHg 48%
    20:00 +27°C° 0 mm 1 mps 751 mmHg 49%
    21:00 +26°C° 0 mm 1 mps 751 mmHg 50%
    22:00 +25°C° 0 mm 1 mps 751 mmHg 52%
    23:00 +25°C° 0 mm 1 mps 751 mmHg 52%

    Tomorrow, 21 August, Tuesday

    Time Temperature Precipitation Wind Pressure Humidity
    00:00 +25°C° 0 mm 1 mps 751 mmHg 53%
    01:00 +24°C° 0 mm 1 mps 752 mmHg 53%
    02:00 +24°C° 0 mm 1 mps 751 mmHg 54%
    03:00 +24°C° 0 mm 1 mps 751 mmHg 55%
    04:00 +23°C° 0 mm 1 mps 751 mmHg 56%
    05:00 +24°C° 0 mm 1 mps 752 mmHg 56%
    06:00 +25°C° 0 mm 1 mps 752 mmHg 57%
    07:00 +25°C° 0 mm 1 mps 752 mmHg 57%
    08:00 +27°C° 0 mm 1 mps 752 mmHg 52%
    09:00 +29°C° 0 mm 2 mps 752 mmHg 47%
    10:00 +31°C° 0 mm 2 mps 752 mmHg 41%
    11:00 +32°C° 0 mm 2 mps 752 mmHg 39%
    12:00 +34°C° 0 mm 2 mps 752 mmHg 37%
    13:00 +35°C° 0 mm 3 mps 752 mmHg 34%
    14:00 +35°C° 0 mm 3 mps 752 mmHg 34%
    15:00 +35°C° 0 mm 2 mps 751 mmHg 34%
    16:00 +35°C° 0 mm 2 mps 751 mmHg 34%
    17:00 +34°C° 0 mm 2 mps 751 mmHg 38%
    18:00 +31°C° 0 mm 2 mps 751 mmHg 42%
    19:00 +29°C° 0 mm 2 mps 751 mmHg 46%
    20:00 +28°C° 0.3 mm 2 mps 751 mmHg 49%
    21:00 +27°C° 0.3 mm 2 mps 752 mmHg 52%
    22:00 +25°C° 0.3 mm 2 mps 752 mmHg 55%
    23:00 +25°C° 0.1 mm 2 mps 752 mmHg 55%

    Day after tomorrow, 22 August, Wednesday

    Time Temperature Precipitation Wind Pressure Humidity
    00:00 +24°C° 0.1 mm 1 mps 752 mmHg 55%
    01:00 +24°C° 0.1 mm 1 mps 752 mmHg 54%
    02:00 +24°C° 0 mm 1 mps 752 mmHg 54%
    03:00 +23°C° 0 mm 1 mps 752 mmHg 54%
    04:00 +23°C° 0 mm 1 mps 752 mmHg 54%
    05:00 +24°C° 0 mm 1 mps 752 mmHg 54%
    06:00 +25°C° 0 mm 1 mps 752 mmHg 55%
    07:00 +25°C° 0 mm 1 mps 752 mmHg 55%
    08:00 +27°C° 0 mm 1 mps 752 mmHg 50%
    09:00 +29°C° 0 mm 1 mps 752 mmHg 44%
    10:00 +31°C° 0 mm 1 mps 752 mmHg 39%
    11:00 +32°C° 0 mm 2 mps 752 mmHg 36%
    12:00 +34°C° 0 mm 2 mps 752 mmHg 34%
    13:00 +35°C° 0 mm 2 mps 752 mmHg 32%
    14:00 +35°C° 0 mm 2 mps 751 mmHg 33%
    15:00 +34°C° 0 mm 1 mps 751 mmHg 33%
    16:00 +34°C° 0 mm 1 mps 751 mmHg 33%
    17:00 +32°C° 0 mm 1 mps 751 mmHg 37%
    18:00 +31°C° 0 mm 1 mps 751 mmHg 41%
    19:00 +29°C° 0 mm 1 mps 751 mmHg 45%
    20:00 +28°C° 0 mm 1 mps 751 mmHg 47%
    21:00 +27°C° 0 mm 1 mps 751 mmHg 49%
    22:00 +26°C° 0 mm 1 mps 751 mmHg 51%
    23:00 +26°C° 0 mm 1 mps 751 mmHg 52%

    23 August, Thursday

    Time Temperature Precipitation Wind Pressure Humidity
    00:00 +26°C° 0 mm 1 mps 751 mmHg 52%
    01:00 +25°C° 0 mm 1 mps 751 mmHg 53%
    02:00 +25°C° 0 mm 1 mps 751 mmHg 54%
    03:00 +25°C° 0 mm 1 mps 751 mmHg 55%
    04:00 +24°C° 0 mm 1 mps 750 mmHg 56%
    05:00 +25°C° 0 mm 1 mps 750 mmHg 57%
    06:00 +25°C° 0 mm 1 mps 751 mmHg 57%
    07:00 +26°C° 0 mm 1 mps 751 mmHg 57%
    08:00 +28°C° 0 mm 1 mps 751 mmHg 51%
    09:00 +30°C° 0 mm 1 mps 751 mmHg 46%
    10:00 +32°C° 0 mm 1 mps 751 mmHg 40%
    11:00 +33°C° 0 mm 1 mps 750 mmHg 37%
    12:00 +34°C° 0 mm 1 mps 750 mmHg 34%
    13:00 +35°C° 0 mm 1 mps 750 mmHg 31%
    14:00 +35°C° 0 mm 1 mps 750 mmHg 32%
    15:00 +34°C° 0 mm 1 mps 749 mmHg 33%
    16:00 +34°C° 0 mm 1 mps 749 mmHg 34%
    17:00 +32°C° 0 mm 1 mps 749 mmHg 38%
    18:00 +30°C° 0 mm 1 mps 749 mmHg 43%
    19:00 +29°C° 0 mm 1 mps 748 mmHg 47%
    20:00 +28°C° 0 mm 2 mps 749 mmHg 49%
    21:00 +27°C° 0 mm 2 mps 749 mmHg 52%
    22:00 +26°C° 0 mm 2 mps 749 mmHg 54%
    23:00 +25°C° 0.1 mm 2 mps 749 mmHg 55%

    24 August, Friday

    Time Temperature Precipitation Wind Pressure Humidity
    00:00 +25°C° 0.1 mm 2 mps 749 mmHg 56%
    01:00 +24°C° 0.1 mm 2 mps 749 mmHg 57%
    02:00 +24°C° 0.1 mm 2 mps 749 mmHg 60%
    03:00 +23°C° 0.1 mm 2 mps 748 mmHg 63%
    04:00 +23°C° 0.1 mm 2 mps 748 mmHg 67%
    05:00 +24°C° 0 mm 2 mps 748 mmHg 67%
    06:00 +24°C° 0 mm 1 mps 748 mmHg 67%
    07:00 +25°C° 0 mm 1 mps 748 mmHg 67%
    08:00 +27°C° 0.2 mm 1 mps 748 mmHg 61%
    09:00 +29°C° 0.2 mm 1 mps 748 mmHg 56%
    10:00 +30°C° 0.2 mm 1 mps 748 mmHg 50%
    11:00 +31°C° 0.4 mm 1 mps 747 mmHg 49%
    12:00 +31°C° 0.4 mm 2 mps 747 mmHg 48%
    13:00 +32°C° 0.4 mm 2 mps 747 mmHg 47%
    14:00 +33°C° 0.1 mm 3 mps 746 mmHg 47%
    15:00 +33°C° 0.1 mm 3 mps 746 mmHg 48%
    16:00 +32°C° 0.1 mm 4 mps 745 mmHg 48%
    17:00 +30°C° 0 mm 3 mps 745 mmHg 52%
    18:00 +29°C° 0 mm 3 mps 745 mmHg 57%
    19:00 +27°C° 0 mm 3 mps 744 mmHg 61%
    20:00 +26°C° 0.1 mm 3 mps 744 mmHg 64%
    21:00 +26°C° 0.1 mm 3 mps 744 mmHg 67%
    22:00 +25°C° 0.1 mm 3 mps 745 mmHg 71%
    23:00 +24°C° 0.1 mm 3 mps 744 mmHg 72%

    25 August, Saturday

    Time Temperature Precipitation Wind Pressure Humidity
    00:00 +24°C° 0.1 mm 2 mps 744 mmHg 74%
    01:00 +24°C° 0.1 mm 2 mps 744 mmHg 75%
    02:00 +23°C° 0.3 mm 2 mps 744 mmHg 77%
    03:00 +23°C° 0.3 mm 2 mps 743 mmHg 79%
    04:00 +23°C° 0.3 mm 2 mps 743 mmHg 81%
    05:00 +23°C° 0.1 mm 2 mps 743 mmHg 79%
    06:00 +23°C° 0.1 mm 2 mps 743 mmHg 77%
    07:00 +24°C° 0.1 mm 3 mps 743 mmHg 75%
    08:00 +25°C° 0.3 mm 3 mps 743 mmHg 67%
    09:00 +27°C° 0.3 mm 4 mps 743 mmHg 59%
    10:00 +29°C° 0.3 mm 4 mps 743 mmHg 51%
    11:00 +29°C° 0.7 mm 4 mps 743 mmHg 47%
    12:00 +29°C° 0.7 mm 5 mps 742 mmHg 43%
    13:00 +29°C° 0.7 mm 5 mps 742 mmHg 40%
    14:00 +29°C° 0.9 mm 5 mps 742 mmHg 41%
    15:00 +28°C° 0.9 mm 5 mps 742 mmHg 42%
    16:00 +27°C° 0.9 mm 5 mps 742 mmHg 44%
    17:00 +25°C° 0.9 mm 4 mps 742 mmHg 55%
    18:00 +21°C° 0.9 mm 3 mps 742 mmHg 65%
    19:00 +19°C° 0.9 mm 3 mps 743 mmHg 76%
    20:00 +18°C° 0.2 mm 2 mps 743 mmHg 78%
    21:00 +17°C° 0.2 mm 2 mps 744 mmHg 80%
    22:00 +16°C° 0.2 mm 2 mps 745 mmHg 81%
    23:00 +16°C° 0 mm 2 mps 745 mmHg 79%
    Show more